Location: Arrodets-la-Barthe
(43.0306°N, 0.2829°E)
Time: 00:49:58
(UTC+00:00)

NOAA 19 - Pass Details

Date: 06 April 2023
Orbit: 840 x 859 km, 99.1° (Epoch: 29 May)

Event Time Altitude Azimuth Distance (km) Brightness Sun altitude
Exits shadow 20:48:03 - 200° (SSW) 2,987 7.9 -23.9°
Reaches altitude 10° 20:49:37 10° 209° (SSW) 2,460 7.5 -24.1°
Maximum altitude 20:54:09 27° 265° (W) 1,586 7.0 -24.8°
Drops below altitude 10° 20:58:43 10° 322° (NW) 2,468 8.6 -25.4°
Sets 21:01:28 0° 334° (NNW) 3,406 9.4 -25.8°
